EW6055 Weather Reports


time (UTC)temp
C
wind
direction
speed
KPH
gust
KPH
rain 1hr
cm
rain 24hr
cm
rain mn
cm
humidity
%
barometer
mb
20260503181503 23 338 1.6 9.7 0.00 0.00 0.00 56 1009.3
20260503181002 23 335 1.6 9.7 0.00 0.00 0.00 56 1009.4
20260503180502 23 329 1.6 8.0 0.00 0.00 0.00 56 1009.3
20260503180003 23 332 1.6 19.3 0.00 0.00 0.00 57 1009.4
20260503175502 22 341 1.6 19.3 0.00 0.00 0.00 58 1009.4
20260503175002 22 338 1.6 8.0 0.00 0.00 0.00 59 1009.4
20260503174502 22 336 1.6 4.8 0.00 0.00 0.00 58 1009.5
20260503174002 22 334 1.6 4.8 0.00 0.00 0.00 60 1009.5
20260503173502 22 331 1.6 4.8 0.00 0.00 0.00 60 1009.5
20260503173002 21 333 1.6 4.8 0.00 0.00 0.00 62 1009.4
20260503172523 21 332 1.6 4.8 0.00 0.00 0.00 62 1009.6
20260503172023 21 334 1.6 9.7 0.00 0.00 0.00 63 1009.6
20260503171502 21 336 1.6 9.7 0.00 0.00 0.00 64 1009.6
20260503171002 21 338 1.6 9.7 0.00 0.00 0.00 64 1009.6
20260503170502 20 339 1.6 8.0 0.00 0.00 0.00 66 1009.7
20260503151002 14 331 1.6 9.7 0.00 0.00 0.00 89 1010.1
20260503150502 14 337 1.6 8.0 0.00 0.00 0.00 89 1010.1
20260503131002 12 320 0.0 8.0 0.00 0.00 0.00 94 1009.7
20260503130502 12 323 1.6 6.4 0.00 0.00 0.00 93 1009.7
20260503110502 12 0 0.0 0.0 0.00 0.00 0.00 93 1010.0
20260503090502 12 0 0.0 0.0 0.00 0.00 0.00 91 1010.4
20260503081502 13 0 0.0 0.0 0.00 0.05 0.00 89 1010.5
20260503081023 13 0 0.0 0.0 0.00 0.08 0.00 89 1010.6
20260503080502 13 0 0.0 0.0 0.00 0.08 0.00 88 1010.5
20260503072523 13 0 0.0 0.0 0.00 0.08 0.00 87 1010.6
20260503072023 13 0 0.0 0.0 0.00 0.08 0.00 87 1010.6
20260503071502 13 0 0.0 0.0 0.00 0.08 0.00 87 1010.6
20260503071002 13 0 0.0 0.0 0.00 0.08 0.00 87 1010.6
20260503070502 13 0 0.0 0.0 0.00 0.08 0.00 86 1010.7
20260503055002 15 0 0.0 0.0 0.00 0.08 0.08 81 1010.8
20260503054502 15 0 0.0 0.0 0.00 0.08 0.08 82 1010.8
20260503054002 15 333 0.0 1.6 0.00 0.08 0.08 81 1010.9
20260503053502 16 333 0.0 1.6 0.00 0.08 0.08 81 1010.7
20260503053002 16 332 0.0 1.6 0.00 0.08 0.08 80 1010.6
20260503052502 16 332 0.0 1.6 0.00 0.08 0.08 80 1010.6
20260503052002 16 333 0.0 1.6 0.00 0.08 0.08 80 1010.5
20260503051502 16 333 0.0 1.6 0.00 0.08 0.08 80 1010.6
20260503051002 16 332 0.0 1.6 0.00 0.08 0.08 80 1010.5
20260503050502 16 319 0.0 4.8 0.00 0.08 0.08 80 1010.5
20260503050002 16 321 1.6 4.8 0.00 0.08 0.08 81 1010.4
20260503045502 16 326 1.6 8.0 0.00 0.08 0.08 80 1010.5
20260503045023 16 332 1.6 8.0 0.00 0.08 0.08 80 1010.5
20260503044503 16 330 1.6 9.7 0.00 0.08 0.08 80 1010.4
20260503044002 16 325 1.6 9.7 0.00 0.08 0.08 80 1010.4
20260503043523 16 330 0.0 8.0 0.00 0.08 0.08 79 1010.5
20260503043002 16 0 0.0 0.0 0.00 0.08 0.08 79 1010.6
20260503042523 16 0 0.0 0.0 0.00 0.08 0.08 78 1010.6
20260503042003 16 0 0.0 0.0 0.00 0.08 0.08 78 1010.5
20260503041503 16 336 0.0 1.6 0.00 0.08 0.08 78 1010.3
20260503041002 16 340 0.0 4.8 0.00 0.08 0.08 78 1010.3
20260503040502 17 343 0.0 4.8 0.00 0.08 0.08 77 1010.2
20260503040002 17 345 0.0 3.2 0.00 0.08 0.08 77 1010.3
20260503035502 17 0 0.0 0.0 0.00 0.08 0.08 76 1010.3
20260503035002 17 0 0.0 0.0 0.00 0.08 0.08 76 1010.3
20260503034502 17 0 0.0 0.0 0.00 0.08 0.08 76 1010.4
20260503034002 17 0 0.0 0.0 0.00 0.08 0.08 76 1010.3
20260503033502 17 0 0.0 0.0 0.00 0.08 0.08 75 1010.3
20260503033002 17 43 0.0 3.2 0.00 0.08 0.08 75 1010.4
20260503032502 17 61 0.0 3.2 0.00 0.08 0.08 75 1010.4
20260503032002 17 67 0.0 3.2 0.00 0.08 0.08 75 1010.4
20260503031502 17 74 0.0 1.6 0.00 0.08 0.08 74 1010.3
20260503031002 17 0 0.0 0.0 0.00 0.08 0.08 74 1010.2
20260503030502 17 0 0.0 0.0 0.00 0.08 0.08 74 1010.2
20260503030003 17 0 0.0 0.0 0.00 0.08 0.08 74 1010.2
20260503025502 17 0 0.0 0.0 0.00 0.08 0.08 73 1010.1
20260503025002 18 0 0.0 0.0 0.00 0.08 0.08 73 1010.1
20260503024502 17 0 0.0 0.0 0.00 0.08 0.08 73 1010.0
20260503024002 17 209 0.0 1.6 0.00 0.08 0.08 73 1009.9
20260503023502 17 297 0.0 1.6 0.00 0.08 0.08 73 1010.0
20260503023002 17 283 1.6 3.2 0.00 0.08 0.08 73 1010.2
20260503022502 17 267 1.6 4.8 0.00 0.08 0.08 73 1010.2
20260503022023 17 176 1.6 4.8 0.00 0.08 0.08 74 1010.4
20260503021523 17 164 1.6 3.2 0.00 0.08 0.08 74 1010.5
20260503021002 17 145 1.6 4.8 0.00 0.08 0.08 73 1010.7
20260503020502 18 153 1.6 4.8 0.00 0.08 0.08 73 1010.7
20260503020002 18 157 1.6 4.8 0.00 0.08 0.08 72 1010.8
20260503015502 18 144 1.6 6.4 0.00 0.08 0.08 71 1010.7
20260503015002 18 138 1.6 6.4 0.00 0.08 0.08 70 1010.8
20260503014502 18 156 1.6 4.8 0.00 0.08 0.08 69 1010.4
20260503014003 19 170 1.6 4.8 0.00 0.08 0.08 68 1010.1
20260503013502 19 179 1.6 4.8 0.00 0.08 0.08 68 1010.1
20260503013003 20 185 1.6 4.8 0.00 0.08 0.08 67 1010.0
20260503012503 20 183 1.6 4.8 0.00 0.08 0.08 65 1009.9
20260503012002 20 182 1.6 3.2 0.00 0.08 0.08 64 1009.8
20260503011503 21 171 1.6 3.2 0.00 0.08 0.08 63 1009.8
20260503011023 21 171 1.6 3.2 0.00 0.08 0.08 63 1009.8
20260503010502 21 178 1.6 3.2 0.00 0.08 0.08 62 1009.7
20260503010002 21 176 1.6 4.8 0.00 0.08 0.08 61 1009.7
20260503005523 22 180 1.6 4.8 0.00 0.08 0.08 59 1009.7
20260503005002 22 0 0.0 0.0 0.00 0.08 0.08 57 1009.7
20260503004502 22 0 0.0 0.0 0.00 0.08 0.08 54 1009.7
20260503004023 22 32 0.0 1.6 0.00 0.08 0.08 54 1009.7
20260503003523 22 306 1.6 4.8 0.00 0.08 0.08 55 1009.6
20260503003002 22 310 1.6 6.4 0.00 0.08 0.08 55 1009.6
20260503002524 22 334 1.6 6.4 0.00 0.08 0.08 54 1009.6
20260503002002 22 335 1.6 9.7 0.00 0.08 0.08 55 1009.5
20260503001502 22 329 1.6 9.7 0.00 0.08 0.08 53 1009.6
20260503001003 22 324 1.6 8.0 0.00 0.08 0.08 53 1009.5
20260503000502 22 296 0.0 4.8 0.00 0.08 0.08 54 1009.5
20260503000002 22 329 0.0 9.7 0.00 0.08 0.08 54 1009.7
20260502235502 22 335 0.0 9.7 0.00 0.08 0.08 53 1009.7
20260502235002 22 349 1.6 8.0 0.00 0.08 0.08 53 1009.7
20260502234523 22 355 1.6 8.0 0.00 0.08 0.08 52 1009.8
20260502234023 22 337 1.6 6.4 0.00 0.08 0.08 52 1009.8
20260502233502 23 308 0.0 6.4 0.00 0.08 0.08 52 1009.9
20260502233003 23 359 0.0 4.8 0.00 0.08 0.08 52 1010.0
20260502232502 22 34 1.6 6.4 0.00 0.08 0.08 53 1010.2
20260502232002 22 6 1.6 8.0 0.00 0.08 0.08 54 1010.2
20260502231503 22 342 1.6 8.0 0.00 0.08 0.08 53 1010.3
20260502231002 22 334 3.2 6.4 0.00 0.08 0.08 53 1010.3
20260502230502 22 322 1.6 8.0 0.00 0.08 0.08 53 1010.4
20260502230003 22 346 1.6 8.0 0.00 0.08 0.08 56 1010.4
20260502225502 22 342 1.6 11.3 0.00 0.08 0.08 55 1010.4
20260502225002 21 301 1.6 11.3 0.00 0.08 0.08 55 1010.4
20260502224502 21 294 1.6 6.4 0.00 0.08 0.08 56 1010.4
20260502224002 21 286 1.6 4.8 0.00 0.08 0.08 57 1010.6
20260502223502 21 288 1.6 4.8 0.00 0.08 0.08 58 1010.7
20260502223002 21 342 1.6 4.8 0.00 0.08 0.08 58 1010.8
20260502222502 21 42 0.0 3.2 0.00 0.08 0.08 58 1010.8
20260502222002 21 0 0.0 0.0 0.00 0.08 0.08 57 1011.0
20260502221502 21 334 0.0 4.8 0.00 0.08 0.08 57 1011.0
20260502221002 21 331 1.6 4.8 0.00 0.08 0.08 56 1011.1
20260502220524 21 339 1.6 9.7 0.00 0.08 0.08 57 1011.2
20260502220002 21 349 1.6 9.7 0.00 0.08 0.08 57 1011.2
20260502215523 21 355 1.6 6.4 0.00 0.08 0.08 58 1011.3
20260502215002 21 353 1.6 6.4 0.00 0.08 0.08 57 1011.4
20260502214523 21 349 1.6 6.4 0.00 0.08 0.08 57 1011.4
20260502214002 21 344 1.6 8.0 0.00 0.08 0.08 57 1011.6
20260502213502 21 352 1.6 11.3 0.00 0.08 0.08 58 1011.6
20260502213002 20 16 1.6 11.3 0.00 0.08 0.08 60 1011.7
20260502212502 20 359 1.6 6.4 0.00 0.08 0.08 61 1011.7
20260502212023 20 360 1.6 11.3 0.00 0.08 0.08 61 1011.8
20260502211502 20 350 1.6 11.3 0.00 0.08 0.08 60 1011.9
20260502211002 19 343 1.6 8.0 0.00 0.08 0.08 61 1012.0
20260502210502 19 22 1.6 8.0 0.00 0.08 0.08 62 1012.0
20260502210002 19 29 1.6 6.4 0.00 0.08 0.08 62 1012.0
20260502205502 19 30 1.6 6.4 0.00 0.08 0.08 62 1012.1
20260502205002 18 1 1.6 11.3 0.00 0.08 0.08 63 1012.2
20260502204502 18 329 1.6 11.3 0.00 0.08 0.08 63 1012.3
20260502204002 18 0 0.0 0.0 0.00 0.08 0.08 64 1012.5
20260502203524 18 10 0.0 6.4 0.00 0.08 0.08 64 1012.5
20260502203003 18 345 1.6 8.0 0.00 0.08 0.08 64 1012.7
20260502202503 18 328 1.6 4.8 0.00 0.08 0.08 65 1012.8
20260502202002 18 319 1.6 6.4 0.00 0.08 0.08 66 1012.8
20260502201502 17 254 0.0 6.4 0.00 0.08 0.08 67 1012.8
20260502201002 17 232 1.6 4.8 0.00 0.08 0.08 69 1012.9
20260502200502 17 265 1.6 4.8 0.00 0.08 0.08 70 1012.9
20260502200002 16 325 0.0 4.8 0.00 0.08 0.08 70 1012.9
20260502195502 16 296 0.0 3.2 0.00 0.08 0.08 69 1012.9
20260502195002 16 307 1.6 6.4 0.00 0.08 0.08 71 1013.1
20260502194502 16 321 3.2 8.0 0.00 0.08 0.08 70 1013.2
20260502194002 16 311 1.6 12.9 0.00 0.08 0.08 71 1013.1
20260502193502 16 305 1.6 12.9 0.00 0.08 0.08 72 1013.1
20260502193023 15 62 1.6 4.8 0.00 0.08 0.08 73 1013.1
20260502192502 15 3 1.6 4.8 0.00 0.08 0.08 73 1013.2
20260502192002 15 338 1.6 6.4 0.00 0.08 0.08 74 1013.2
20260502191502 15 340 1.6 6.4 0.00 0.08 0.08 75 1013.3
20260502191024 15 344 1.6 6.4 0.00 0.08 0.08 76 1013.5
20260502190523 14 342 1.6 6.4 0.00 0.08 0.08 76 1013.6
20260502190002 14 356 1.6 4.8 0.00 0.08 0.08 77 1013.8
20260502185502 14 360 1.6 4.8 0.00 0.08 0.08 77 1013.8
20260502185003 13 301 1.6 4.8 0.00 0.08 0.08 77 1013.8
20260502184502 13 275 1.6 6.4 0.00 0.08 0.08 77 1013.9
20260502184003 13 291 1.6 6.4 0.00 0.08 0.08 78 1013.9
20260502183502 13 297 3.2 8.0 0.00 0.08 0.08 80 1013.8
20260502183003 13 303 3.2 8.0 0.00 0.08 0.08 79 1013.7
20260502182524 13 317 1.6 8.0 0.00 0.08 0.08 79 1013.5
20260502182002 13 321 1.6 8.0 0.00 0.08 0.08 80 1013.6